EW1970 Weather Reports


time (UTC)temp
C
wind
direction
speed
KPH
gust
KPH
rain 1hr
cm
rain 24hr
cm
rain mn
cm
humidity
%
barometer
mb
20260509214509 31 96 0.0 4.8 0.00 0.00 0.00 56 1008.9
20260509213004 31 72 0.0 3.2 0.00 0.00 0.00 53 1009.1
20260509211504 31 125 0.0 3.2 0.00 0.00 0.00 55 1009.2
20260509210008 31 111 0.0 8.0 0.00 0.00 0.00 57 1009.5
20260509204507 30 117 0.0 4.8 0.00 0.00 0.00 60 1009.7
20260509203022 30 20 0.0 9.7 0.00 0.00 0.00 52 1009.9
20260509201502 29 20 1.6 16.1 0.00 0.00 0.00 54 1010.3
20260509200004 28 113 6.4 24.1 0.00 0.00 0.00 53 1010.8
20260509194505 27 59 0.0 14.5 0.00 0.00 0.00 57 1010.9
20260509193010 30 321 1.6 14.5 0.00 0.00 0.00 64 1010.6
20260509191512 30 290 3.2 12.9 0.00 0.00 0.00 63 1010.3
20260509190005 29 257 1.6 16.1 0.00 0.00 0.00 68 1010.5
20260509184511 30 16 3.2 9.7 0.00 0.00 0.00 66 1010.8
20260509183013 28 53 0.0 12.9 0.00 0.00 0.00 66 1011.1
20260509181513 30 317 1.6 9.7 0.00 0.00 0.00 65 1011.2
20260509180020 30 288 1.6 8.0 0.00 0.00 0.00 71 1011.5
20260509174504 28 234 0.0 6.4 0.00 0.00 0.00 72 1011.5
20260509173003 27 293 1.6 4.8 0.00 0.00 0.00 73 1011.6
20260509171509 28 219 3.2 9.7 0.00 0.00 0.00 74 1012.1
20260509170016 28 296 3.2 11.3 0.00 0.00 0.00 72 1012.3
20260509164519 28 302 3.2 8.0 0.00 0.00 0.00 74 1012.1
20260509163007 27 274 3.2 8.0 0.00 0.00 0.00 80 1012.2
20260509161509 27 310 3.2 8.0 0.00 0.00 0.00 76 1012.2
20260509160012 26 271 4.8 12.9 0.00 0.00 0.00 81 1011.9
20260509154522 26 252 1.6 8.0 0.00 0.00 0.00 84 1011.9
20260509153023 26 102 3.2 11.3 0.00 0.00 0.00 84 1011.8
20260509151507 25 234 3.2 14.5 0.00 0.00 0.00 85 1011.2
20260509150013 25 258 3.2 12.9 0.00 0.00 0.00 86 1011.3
20260509144524 25 117 0.0 8.0 0.00 0.00 0.00 87 1011.2
20260509143021 24 252 0.0 4.8 0.00 0.00 0.00 88 1011.2
20260509141528 23 178 1.6 4.8 0.00 0.00 0.00 90 1011.0
20260509140008 23 269 0.0 4.8 0.00 0.00 0.00 92 1010.7
20260509134518 22 121 1.6 6.4 0.00 0.00 0.00 93 1010.6
20260509133008 22 250 1.6 6.4 0.00 0.00 0.00 93 1010.9
20260509131505 21 111 0.0 4.8 0.00 0.00 0.00 93 1010.9
20260509130009 21 161 0.0 3.2 0.00 0.00 0.00 93 1011.2
20260509124529 21 287 0.0 3.2 0.00 0.00 0.00 93 1011.4
20260509123007 21 270 0.0 4.8 0.00 0.00 0.00 93 1011.1
20260509121506 21 352 0.0 3.2 0.00 0.00 0.00 93 1011.0
20260509120010 21 352 0.0 3.2 0.00 0.00 0.00 93 1011.1
20260509114512 21 352 0.0 1.6 0.00 0.00 0.00 93 1011.0
20260509113017 21 352 0.0 3.2 0.00 0.00 0.00 93 1012.0
20260509111505 21 49 0.0 3.2 0.00 0.00 0.00 93 1012.2
20260509110007 21 288 0.0 3.2 0.00 0.00 0.00 93 1012.4
20260509104510 21 340 0.0 3.2 0.00 0.00 0.00 93 1012.3
20260509103017 21 360 0.0 3.2 0.00 0.00 0.00 93 1012.4
20260509101520 21 298 0.0 1.6 0.00 0.00 0.00 93 1012.3
20260509100005 21 102 0.0 0.0 0.00 0.00 0.00 93 1011.8
20260509094508 21 102 0.0 0.0 0.00 0.00 0.00 93 1011.3
20260509093012 21 102 0.0 0.0 0.00 0.00 0.00 93 1010.9
20260509091519 21 102 0.0 0.0 0.00 0.00 0.00 93 1010.9
20260509090022 21 102 0.0 0.0 0.00 0.00 0.00 92 1010.8
20260509084507 21 102 0.0 1.6 0.00 0.00 0.00 92 1011.0
20260509083020 22 102 0.0 0.0 0.00 0.00 0.00 92 1011.3
20260509081518 21 102 0.0 0.0 0.00 0.00 0.00 92 1011.2
20260509080033 22 102 0.0 0.0 0.00 0.00 0.00 92 1011.3
20260509074526 22 102 0.0 1.6 0.00 0.00 0.00 91 1011.5
20260509073010 22 146 0.0 0.0 0.00 0.00 0.00 91 1011.6
20260509071513 22 146 0.0 3.2 0.00 0.00 0.00 91 1011.8
20260509070019 22 275 0.0 3.2 0.00 0.00 0.00 91 1011.8
20260509064526 22 197 0.0 4.8 0.00 0.00 0.00 90 1011.4
20260509063027 22 122 0.0 9.7 0.00 0.00 0.00 90 1011.6
20260509061530 22 132 0.0 3.2 0.00 0.00 0.00 90 1011.2
20260509060017 22 108 0.0 6.4 0.00 0.00 0.00 90 1011.0
20260509054523 22 118 1.6 9.7 0.00 0.00 0.00 90 1011.2
20260509053030 22 126 0.0 4.8 0.00 0.00 0.00 90 1010.4
20260509051527 22 263 1.6 6.4 0.00 0.00 0.00 89 1010.2
20260509050016 22 127 1.6 4.8 0.00 0.00 0.00 89 1010.1
20260509044519 22 103 0.0 6.4 0.00 0.00 0.00 88 1010.3
20260509043022 22 140 0.0 3.2 0.00 0.00 0.00 88 1010.5
20260509041529 22 133 0.0 3.2 0.00 0.00 0.00 88 1010.7
20260509040028 22 145 0.0 3.2 0.00 0.00 0.00 88 1010.8
20260509034518 22 145 0.0 3.2 0.00 0.00 0.00 89 1010.7
20260509033003 22 121 0.0 1.6 0.00 0.00 0.00 89 1010.4
20260509031504 22 134 0.0 3.2 0.00 0.00 0.00 88 1010.3
20260509030014 22 150 0.0 3.2 0.00 0.00 0.00 88 1010.1
20260509024514 22 83 0.0 0.0 0.00 0.00 0.00 88 1010.1
20260509023007 22 28 0.0 3.2 0.00 0.00 0.00 87 1010.0
20260509021506 22 126 0.0 9.7 0.00 0.00 0.00 86 1009.9
20260509020011 23 147 1.6 9.7 0.00 0.00 0.00 86 1009.5
20260509014513 23 107 0.0 11.3 0.00 0.00 0.00 85 1009.5
20260509013019 23 149 0.0 4.8 0.00 0.00 0.00 84 1009.4
20260509011504 23 64 0.0 4.8 0.00 0.00 0.00 83 1009.5
20260509010005 23 131 1.6 8.0 0.00 0.00 0.00 83 1009.5
20260509004521 23 238 0.0 3.2 0.00 0.00 0.00 83 1009.4
20260509003028 23 134 0.0 4.8 0.00 0.00 0.00 83 1009.4
20260509001521 23 154 0.0 4.8 0.00 0.00 0.00 83 1009.5
20260509000005 24 59 0.0 3.2 0.00 0.00 0.00 82 1009.5
20260508234510 24 84 0.0 8.0 0.00 0.00 0.00 82 1009.6
20260508233015 24 78 0.0 4.8 0.00 0.00 0.00 82 1009.4
20260508231520 24 46 0.0 3.2 0.00 0.00 0.00 82 1009.4
20260508230023 24 55 0.0 4.8 0.00 0.00 0.00 82 1009.4
20260508224508 24 303 0.0 3.2 0.00 0.00 0.00 82 1009.6
20260508223012 25 36 0.0 3.2 0.00 0.00 0.00 80 1009.5
20260508221517 25 322 1.6 11.3 0.00 0.00 0.00 79 1009.6
20260508220026 25 191 1.6 4.8 0.00 0.00 0.00 79 1009.6